This is the latest recevied weather packets stored in our database for station/object KN6WGU. If no packets are shown the sender has not sent any weather packets the latest 10 day(s).
| Time | Temp. | Humidity | Pressure | Rain* | Wind** | Luminosity | Snow |
|---|---|---|---|---|---|---|---|
| 1787618381 | 21.67° C | 68% | 1009.7 hPa | 0 mm | - | 0 W/m² | - |
| 1787618077 | 21.67° C | 68% | 1009.8 hPa | 0 mm | - | 0 W/m² | - |
| 1787617771 | 21.67° C | 69% | 1009.8 hPa | 0 mm | - | 0 W/m² | - |
| 1787617471 | 21.67° C | 68% | 1009.6 hPa | 0 mm | - | 0 W/m² | - |
| 1787617166 | 21.67° C | 68% | 1009.8 hPa | 0 mm | - | 0 W/m² | - |
| 1787616860 | 21.67° C | 68% | 1009.6 hPa | 0 mm | - | 1 W/m² | - |
| 1787616559 | 21.67° C | 68% | 1009.7 hPa | 0 mm | - | 2 W/m² | - |
| 1787616258 | 21.67° C | 68% | 1009.6 hPa | 0 mm | - | 3 W/m² | - |
| 1787615957 | 22.22° C | 67% | 1009.5 hPa | 0 mm | - | 4 W/m² | - |
| 1787615652 | 22.22° C | 66% | 1009.5 hPa | 0 mm | - | 6 W/m² | - |
| 1787615347 | 22.22° C | 66% | 1009.6 hPa | 0 mm | - | 8 W/m² | - |
| 1787615043 | 22.22° C | 65% | 1009.3 hPa | 0 mm | - | 10 W/m² | - |
| 1787614739 | 22.22° C | 66% | 1009.6 hPa | 0 mm | - | 11 W/m² | - |
| 1787614436 | 22.22° C | 65% | 1009.6 hPa | 0 mm | - | 12 W/m² | - |
| 1787614133 | 22.22° C | 65% | 1009.7 hPa | 0 mm | - | 16 W/m² | - |
| 1787613828 | 22.78° C | 65% | 1009.5 hPa | 0 mm | - | 19 W/m² | - |
| 1787613524 | 22.78° C | 65% | 1009.5 hPa | 0 mm | - | 23 W/m² | - |
| 1787613219 | 22.78° C | 63% | 1009.8 hPa | 0 mm | - | 24 W/m² | - |
| 1787612916 | 22.78° C | 65% | 1009.4 hPa | 0 mm | - | 36 W/m² | - |
| 1787612611 | 22.78° C | 64% | 1009.6 hPa | 0 mm | - | 43 W/m² | - |
| 1787612307 | 22.78° C | 65% | 1009.5 hPa | 0 mm | - | 39 W/m² | - |
| 1787612003 | 22.78° C | 65% | 1009.6 hPa | 0 mm | - | 40 W/m² | - |
| 1787611700 | 22.78° C | 65% | 1009.5 hPa | 0 mm | - | 51 W/m² | - |
| 1787611396 | 22.78° C | 65% | 1009.6 hPa | 0 mm | - | 54 W/m² | - |
| 1787611090 | 22.78° C | 65% | 1009.5 hPa | 0 mm | - | 55 W/m² | - |
* Rain latest hour (hover to see other rain measurements)
** Current wind speed in m/s (hover to see current wind gust speed)